Stuttgart, AR

4:03 PM CDT on September 20, 2017 (GMT -0500)
Stuttgart Municipal

Weather History for KSGT - December, 2012

Change the Weather History Date:

Sunday, December 23, 2012

  Actual Average Record
Temperature  
Mean Temperature 52 °F -  
Max Temperature 59 °F 46 °F 75 °F (2015)
Min Temperature 46 °F 31 °F 17 °F (2004)
Degree Days  
Heating Degree Days 12    
Growing Degree Days 2 (Base 50)    
Moisture  
Dew Point 44 °F    
Average Humidity 73    
Maximum Humidity 88    
Minimum Humidity 53    
Precipitation  
Precipitation 0.00 in - - ()
Sea Level Pressure  
Sea Level Pressure 29.97 in    
Wind  
Wind Speed 8 mph (SSE)    
Max Wind Speed 14 mph    
Max Gust Speed -    
Visibility 10 miles    
Events      
Averages and records for this station are not official NWS values.
T = Trace of Precipitation, MM = Missing Value Source: NWS Daily Summary

Daily Weather History Graph

Daily Weather History Graph

Search for Another Location

Airport or City:

Trip Planner

Search our weather history database for the weather conditions in past years. The results will help you decide how hot, cold, wet, or windy it might be!

Date:

Astronomy

Dec. 23, 2012 Rise Set
Actual Time 7:10 AM CST 5:00 PM CST
Civil Twilight 6:42 AM CST 5:28 PM CST
Nautical Twilight 6:10 AM CST 6:00 PM CST
Astronomical Twilight 5:40 AM CST 6:31 PM CST
Moon 1:47 PM CST (12/23) 2:58 AM CST (12/23)
Length of Visible Light 10h 46m
Length of Day
9h 50m
Waxing Gibbous, 82% of the Moon is Illuminated
Dec 23
Waxing Gibbous
Dec 28
Full
Jan 4
Last Quarter
Jan 11
New
Jan 18
First Quarter

Hourly Weather History & Observations

Time (CST) Temp. Windchill Dew Point Humidity Pressure Visibility Wind Dir Wind Speed Gust Speed Precip Events Conditions
12:15 AM 46.4 °F 42.9 °F 30.2 °F 53% 30.11 in 10.0 mi South 6.9 mph - N/A   Clear
12:35 AM 46.4 °F 41.9 °F 30.2 °F 53% 30.11 in 10.0 mi South 9.2 mph - N/A   Clear
1:15 AM 46.4 °F 42.4 °F 30.2 °F 53% 30.10 in 10.0 mi South 8.1 mph - N/A   Clear
1:35 AM 46.4 °F 41.9 °F 30.2 °F 53% 30.10 in 10.0 mi South 9.2 mph - N/A   Mostly Cloudy
1:55 AM 48.2 °F - 32.0 °F 54% 30.10 in 10.0 mi South 9.2 mph - N/A   Overcast
2:15 AM 48.2 °F - 32.0 °F 54% 30.09 in 10.0 mi South 6.9 mph - N/A   Overcast
2:35 AM 48.2 °F - 32.0 °F 54% 30.09 in 10.0 mi South 9.2 mph - N/A   Overcast
2:55 AM 48.2 °F - 33.8 °F 58% 30.08 in 10.0 mi South 8.1 mph - N/A   Overcast
3:15 AM 48.2 °F - 33.8 °F 58% 30.08 in 10.0 mi South 10.4 mph - N/A   Overcast
3:35 AM 48.2 °F - 33.8 °F 58% 30.07 in 10.0 mi South 9.2 mph - N/A   Overcast
3:55 AM 48.2 °F - 35.6 °F 62% 30.06 in 10.0 mi South 11.5 mph - N/A   Overcast
4:15 AM 48.2 °F - 35.6 °F 62% 30.06 in 10.0 mi South 10.4 mph - N/A   Mostly Cloudy
4:35 AM 48.2 °F - 35.6 °F 62% 30.06 in 10.0 mi South 10.4 mph - N/A   Mostly Cloudy
4:55 AM 48.2 °F - 37.4 °F 66% 30.06 in 10.0 mi South 10.4 mph - N/A   Mostly Cloudy
5:35 AM 50.0 °F - 37.4 °F 62% 30.05 in 10.0 mi South 10.4 mph - N/A   Overcast
5:55 AM 48.2 °F - 39.2 °F 71% 30.06 in 10.0 mi South 9.2 mph - N/A   Mostly Cloudy
6:15 AM 48.2 °F - 39.2 °F 71% 30.06 in 10.0 mi South 8.1 mph - N/A   Mostly Cloudy
6:35 AM 50.0 °F - 39.2 °F 66% 30.06 in 10.0 mi South 8.1 mph - N/A   Mostly Cloudy
6:55 AM 50.0 °F - 39.2 °F 66% 30.06 in 10.0 mi South 8.1 mph - N/A   Overcast
7:15 AM 48.2 °F - 39.2 °F 71% 30.06 in 10.0 mi SSE 6.9 mph - N/A   Overcast
7:35 AM 48.2 °F - 39.2 °F 71% 30.05 in 10.0 mi SE 6.9 mph - N/A   Overcast
7:55 AM 48.2 °F - 39.2 °F 71% 30.06 in 10.0 mi SE 4.6 mph - N/A   Overcast
8:15 AM 48.2 °F - 39.2 °F 71% 30.05 in 10.0 mi SE 5.8 mph - N/A   Overcast
8:35 AM 48.2 °F - 39.2 °F 71% 30.05 in 10.0 mi SE 8.1 mph - N/A   Overcast
8:55 AM 50.0 °F - 39.2 °F 66% 30.05 in 10.0 mi SSE 8.1 mph - N/A   Overcast
9:35 AM 50.0 °F - 41.0 °F 71% 30.05 in 10.0 mi SSE 9.2 mph - N/A   Overcast
9:55 AM 51.8 °F - 41.0 °F 67% 30.05 in 10.0 mi SSE 10.4 mph - N/A   Overcast
10:15 AM 51.8 °F - 42.8 °F 71% 30.04 in 10.0 mi SSE 10.4 mph - N/A   Overcast
10:35 AM 53.6 °F - 42.8 °F 67% 30.03 in 10.0 mi SSE 11.5 mph - N/A   Overcast
10:55 AM 53.6 °F - 42.8 °F 67% 30.02 in 10.0 mi South 10.4 mph - N/A   Overcast
11:35 AM 53.6 °F - 44.6 °F 72% 30.00 in 10.0 mi South 8.1 mph - N/A   Overcast
11:55 AM 55.4 °F - 44.6 °F 67% 29.99 in 10.0 mi South 9.2 mph - N/A   Overcast
12:15 PM 53.6 °F - 46.4 °F 77% 29.97 in 10.0 mi SE 6.9 mph - N/A   Overcast
12:35 PM 55.4 °F - 46.4 °F 72% 29.96 in 10.0 mi SSE 5.8 mph - N/A   Overcast
1:15 PM 57.2 °F - 48.2 °F 72% 29.93 in 10.0 mi SSE 8.1 mph - N/A   Overcast
1:35 PM 57.2 °F - 48.2 °F 72% 29.91 in 9.0 mi SSE 10.4 mph - N/A   Overcast
1:55 PM 59.0 °F - 48.2 °F 67% 29.91 in 10.0 mi South 11.5 mph - N/A   Overcast
2:15 PM 59.0 °F - 50.0 °F 72% 29.91 in 10.0 mi South 13.8 mph - N/A   Overcast
2:35 PM 57.2 °F - 50.0 °F 77% 29.90 in 10.0 mi SSE 9.2 mph - N/A   Overcast
2:55 PM 57.2 °F - 50.0 °F 77% 29.89 in 10.0 mi SSE 11.5 mph - N/A   Overcast
3:15 PM 57.2 °F - 50.0 °F 77% 29.89 in 10.0 mi SSE 9.2 mph - N/A   Overcast
3:35 PM 57.2 °F - 50.0 °F 77% 29.89 in 9.0 mi SSE 9.2 mph - N/A   Overcast
3:55 PM 57.2 °F - 51.8 °F 82% 29.88 in 10.0 mi SE 8.1 mph - N/A   Overcast
4:15 PM 57.2 °F - 51.8 °F 82% 29.87 in 10.0 mi SE 8.1 mph - N/A   Overcast
4:35 PM 57.2 °F - 51.8 °F 82% 29.87 in 8.0 mi SSE 9.2 mph - N/A   Overcast
5:15 PM 57.2 °F - 51.8 °F 82% 29.86 in 9.0 mi SSE 6.9 mph - N/A   Overcast
5:35 PM 57.2 °F - 51.8 °F 82% 29.87 in 10.0 mi SE 6.9 mph - N/A   Overcast
5:55 PM 57.2 °F - 51.8 °F 82% 29.87 in 10.0 mi ESE 5.8 mph - N/A   Overcast
6:15 PM 55.4 °F - 50.0 °F 82% 29.88 in 10.0 mi ESE 5.8 mph - N/A   Overcast
6:55 PM 55.4 °F - 51.8 °F 88% 29.88 in 10.0 mi SE 6.9 mph - N/A   Overcast
7:15 PM 55.4 °F - 51.8 °F 88% 29.89 in 10.0 mi ESE 5.8 mph - N/A   Overcast
7:35 PM 55.4 °F - 51.8 °F 88% 29.89 in 10.0 mi SSE 6.9 mph - N/A   Overcast
7:55 PM 55.4 °F - 51.8 °F 88% 29.88 in 9.0 mi SSE 8.1 mph - N/A   Overcast
8:15 PM 55.4 °F - 51.8 °F 88% 29.87 in 8.0 mi SSE 9.2 mph - N/A   Mostly Cloudy
8:55 PM 53.6 °F - 50.0 °F 88% 29.85 in 10.0 mi SE 5.8 mph - N/A   Scattered Clouds
9:15 PM 53.6 °F - 50.0 °F 88% 29.85 in 10.0 mi SE 6.9 mph - N/A   Mostly Cloudy
9:35 PM 53.6 °F - 50.0 °F 88% 29.85 in 10.0 mi SE 6.9 mph - N/A   Scattered Clouds
9:55 PM 53.6 °F - 48.2 °F 82% 29.84 in 7.0 mi SSE 6.9 mph - N/A   Scattered Clouds
10:15 PM 55.4 °F - 51.8 °F 88% 29.84 in 6.0 mi SSE 8.1 mph - N/A   Overcast
10:35 PM 55.4 °F - 51.8 °F 88% 29.83 in 5.0 mi SSE 8.1 mph - N/A   Mostly Cloudy
10:55 PM 55.4 °F - 51.8 °F 88% 29.84 in 7.0 mi SSE 5.8 mph - N/A   Overcast
11:15 PM 55.4 °F - 51.8 °F 88% 29.83 in 9.0 mi SSE 5.8 mph - N/A   Overcast
11:35 PM 55.4 °F - 51.8 °F 88% 29.82 in 7.0 mi SSE 4.6 mph - N/A   Overcast